NOAA 16 DEB, 41076

Orbit data source: Space-Track

NOAA 16 DEB, 41076 is space debris in SSO originally from a launch on Thu, 21 Sep 2000 UTC launched from the Air Force Western Test Range (AFWTR). Debris objects in space refer to the collection of defunct objects orbiting the Earth. Examples of debris include non-operational satellites, rocket bodies, and fragments generated from explosions, collisions, or faulty payload assembly.

Loading next visibility...
Identifier
41076, 2000-055AK
Orbit
SSO
Country
Flag of USUS
Related business
Manufacturer
Unknown
Mission
Spacecraft
Bus & Motor
Unknown
Mass
Unknown
Launch date (UTC)
2000-09-21 (25 years ago)
Launch vehicle
Unknown
Launch site
Air Force Western Test Range (AFWTR)
Object type
Payload
Rocket body
Debris
Shape & HBR
Unknown shape, 0.1 m
Radar Cross Section
Small (<0.1 m²)

Expand to show TLE details & history
Last TLE update: 17 hours ago

TLE from 17 hours ago
0 NOAA 16 DEB
1 41076U 00055AK  26036.03005547  .00161039  00000-0  36067-2 0  9993
2 41076  99.1789 250.1996 0043708 203.4994 156.4251 15.41820244545681
Epoch: 2026-02-05T00:43Z
TLE epoch observation values (Epoch: 2026-02-05T00:43:16.792Z)
Latitude
-0.00005°
Longitude
104.1915°
Altitude
471.143 km
Speed
7.615 km/s
True Right ascension
16h 40m 47s
True Declination
0° 00' 00"
Sunlit
Object was in daylight at epoch
Visualization orbit readout
Latitude
Unknown
Longitude
Unknown
Altitude
Unknown
Speed
Unknown
Apparent Right ascension
Unknown
Apparent Declination
Unknown
Sunlit
N/A
Visualization observer readout
Local Sidereal Time
19:48:46
Azimuth
Unknown
Elevation
Unknown
Doppler factor
Unknown
Orbital elements
Apogee altitude
467.55 km
Perigee altitude
407.969 km
Semi-major axis
6,815.896 km
Eccentricity
0.00437
Inclination
99.1789°
RAAN
250.1996°
Arg. of periapsis
203.4994°
True anomaly
156.62442°
Mean anomaly
156.4251°
Eccentric anomaly
156.52486°
Mean motion
3.85708 °/min
Orbital period
93.33 mins
BSTAR
0.0036067
Loading maneuver chart data...
Computing Atmospheric mass density...

Documentation

Showing up to 5 results
|